Satellite-Ground Cal/Val Region Overpasses Predictions

Prediction of Satellite NPP Overpassing Cal/Val Region: PacNW

Region Location: (Latitude: 10.00, Longitude: 139.50) to (Latitude: 22.70, Longitude: 165.60).

Table of predicted overpasses for the next 14.0 days since TLE Epoch: 10/31/2015
Interval Starting Time Starting Location Ending Time Ending Location
1 10/31/2015 15:20:14 ( 22.69, 155.53) 10/31/2015 15:23:50 ( 10.01, 152.52)
2 11/01/2015 02:29:18 ( 10.00, 163.08) 11/01/2015 02:32:54 ( 22.68, 160.07)
3 11/01/2015 15:01:11 ( 22.68, 160.29) 11/01/2015 15:04:47 ( 10.00, 157.28)
4 11/02/2015 02:12:59 ( 19.59, 165.59) 11/02/2015 02:13:52 ( 22.70, 164.82)
5 11/02/2015 03:51:46 ( 10.02, 142.45) 11/02/2015 03:55:18 ( 22.47, 139.50)
6 11/02/2015 14:42:09 ( 22.67, 165.04) 11/02/2015 14:45:44 ( 10.05, 162.05)
7 11/02/2015 16:23:39 ( 22.66, 139.67) 11/02/2015 16:23:50 ( 22.02, 139.50)
8 11/03/2015 03:32:43 ( 10.03, 147.21) 11/03/2015 03:36:18 ( 22.66, 144.21)
9 11/03/2015 16:04:36 ( 22.65, 144.42) 11/03/2015 16:08:11 ( 10.03, 141.43)
10 11/04/2015 03:13:41 ( 10.04, 151.96) 11/04/2015 03:17:16 ( 22.67, 148.97)
11 11/04/2015 15:45:33 ( 22.70, 149.19) 11/04/2015 15:49:09 ( 10.02, 146.18)
12 11/05/2015 02:54:38 ( 10.06, 156.72) 11/05/2015 02:58:13 ( 22.68, 153.72)
13 11/05/2015 15:26:30 ( 22.68, 153.94) 11/05/2015 15:30:06 ( 10.00, 150.94)
14 11/06/2015 02:35:35 ( 10.01, 161.49) 11/06/2015 02:39:11 ( 22.70, 158.48)
15 11/06/2015 15:07:28 ( 22.67, 158.70) 11/06/2015 15:11:03 ( 10.05, 155.70)
16 11/07/2015 02:17:21 ( 12.85, 165.59) 11/07/2015 02:20:08 ( 22.65, 163.25)
17 11/07/2015 03:58:03 ( 10.04, 140.86) 11/07/2015 03:59:43 ( 15.91, 139.50)
18 11/07/2015 14:48:25 ( 22.66, 163.45) 11/07/2015 14:52:00 ( 10.04, 160.46)
19 11/08/2015 03:39:00 ( 10.05, 145.62) 11/08/2015 03:42:35 ( 22.68, 142.62)
20 11/08/2015 14:32:30 ( 11.67, 165.59) 11/08/2015 14:32:58 ( 10.02, 165.21)
21 11/08/2015 16:10:52 ( 22.69, 142.84) 11/08/2015 16:14:28 ( 10.01, 139.84)
22 11/09/2015 03:19:57 ( 10.01, 150.39) 11/09/2015 03:23:33 ( 22.69, 147.38)
23
